Theta_e
318 318 317 317 316 319 322 322 328 329 328 324 322 326 323 323 327 325 325 326 327 325 325 328 327 328 329 338 339 336 335 337 339 338 340 339 335 335 335 333 330 330 332 328 321 316 312 309 309 309 309 315 326 332 334 335 335 335 336 336 336 336 336 335 334 332 328 322 318 315 311 311 310 311 312 311 312 312 312 312 312 312 312 311 312 315 315 314 313 315 316 311 310 310 310 312 313
318 318 317 317 317 321 323 323 330 330 328 324 320 325 322 322 326 324 326 327 326 326 329 331 331 332 332 333 333 335 338 336 336 336 337 336 335 335 334 331 329 331 331 325 319 315 310 309 309 309 310 316 326 331 334 335 335 335 335 335 335 335 334 333 331 328 323 316 313 311 312 314 311 310 311 311 312 312 312 311 312 311 311 311 312 313 312 311 311 311 311 310 311 311 312 313 315
318 318 316 318 320 321 324 324 330 329 324 324 323 325 323 324 325 324 326 324 324 326 330 331 331 332 332 335 336 338 339 337 336 336 336 336 335 335 334 331 330 332 329 322 318 314 310 309 309 309 310 317 325 330 333 335 335 335 335 335 334 333 331 329 326 322 317 313 311 312 316 317 315 315 312 310 312 311 310 310 312 314 312 312 311 310 311 311 310 310 310 310 312 312 314 314 315
318 319 317 319 322 323 326 326 332 331 324 324 322 322 325 327 326 324 325 324 324 324 327 329 331 330 332 337 336 337 337 336 337 335 336 336 334 335 334 331 332 332 327 321 317 313 309 309 308 309 310 316 323 327 331 334 334 334 334 334 333 331 327 321 317 314 312 311 312 314 315 313 317 319 313 310 311 310 312 312 312 315 315 314 312 309 310 310 310 310 310 311 314 314 314 315 316
318 319 316 318 323 324 325 325 332 328 322 326 321 320 326 326 325 323 323 324 323 324 327 330 333 332 333 335 334 337 337 336 336 334 335 335 334 335 334 332 332 331 325 319 316 312 309 309 308 309 310 314 318 322 329 332 332 333 333 331 330 326 319 314 311 310 309 313 315 312 311 313 317 316 312 311 311 311 315 314 311 313 313 313 313 310 310 310 310 310 310 310 315 316 314 315 316
317 318 317 318 321 322 325 324 329 326 323 329 324 324 327 323 324 322 321 323 323 324 325 327 331 333 335 335 334 336 336 336 335 335 335 335 335 335 334 332 332 330 323 319 316 311 310 310 308 308 309 313 316 318 322 329 331 330 329 326 323 319 314 312 311 310 308 314 316 311 312 317 318 314 314 312 309 311 312 312 313 315 315 314 314 312 310 310 310 310 310 311 314 315 314 315 316
316 318 318 319 321 322 328 326 330 329 320 324 325 326 325 321 322 321 322 323 324 324 323 327 329 332 336 335 334 334 335 335 335 335 335 334 335 335 333 332 332 330 322 318 315 311 310 310 309 309 308 311 315 316 317 324 326 325 324 320 318 316 314 312 310 310 308 312 313 313 316 317 317 315 315 312 309 310 309 310 312 314 315 315 314 312 309 309 310 310 310 311 312 314 314 315 316
316 319 319 322 325 323 327 326 330 331 317 318 323 324 322 320 321 321 322 322 324 324 324 327 327 332 334 334 336 335 335 334 334 335 334 334 334 334 333 332 333 330 322 318 315 313 311 310 310 309 309 309 312 314 315 320 322 322 322 317 315 315 313 311 309 309 309 309 310 313 316 316 316 315 315 312 309 309 309 309 309 310 312 312 312 310 309 309 309 310 310 311 313 314 315 316 316
317 320 320 322 327 326 329 326 323 322 319 320 321 321 321 321 321 320 319 320 323 322 324 325 324 332 333 335 337 336 336 336 334 334 334 332 334 333 332 333 333 329 321 318 317 316 314 311 310 310 310 309 309 311 311 317 320 321 322 317 313 315 312 310 309 309 310 309 310 311 313 314 314 314 313 311 309 309 309 309 309 310 310 310 311 311 311 311 310 311 311 312 313 314 315 316 316
318 320 320 322 326 323 326 330 323 318 320 321 320 320 321 320 319 319 318 320 322 321 322 323 324 332 334 336 337 336 337 337 334 333 333 333 334 333 333 334 334 328 320 319 319 318 317 313 312 310 310 310 309 312 311 315 320 320 321 318 314 314 312 310 310 309 310 310 311 311 312 314 314 313 312 310 308 308 309 310 310 311 312 313 313 313 313 312 312 312 312 313 313 315 315 316 316
320 319 318 322 325 321 325 331 326 320 319 318 319 321 320 319 318 318 319 320 320 322 323 324 330 333 333 335 336 337 337 337 333 332 334 334 335 334 334 335 334 329 320 320 320 319 319 316 314 311 310 310 310 314 313 312 318 319 320 319 314 312 311 310 310 310 310 310 310 310 311 313 312 312 311 309 308 308 309 310 311 313 314 314 314 314 314 313 313 313 313 313 313 314 315 315 316
319 322 326 327 327 326 329 329 323 320 319 319 319 320 319 318 319 319 319 321 319 323 324 326 331 332 333 334 336 337 336 336 334 332 334 335 335 335 335 335 335 331 323 319 321 320 321 319 316 312 311 310 310 312 311 310 313 315 316 315 312 311 310 310 309 309 310 309 310 309 310 310 309 309 309 308 308 309 310 312 314 315 315 315 315 315 314 314 314 313 313 313 313 313 314 315 315
320 324 329 327 330 330 328 325 322 322 319 320 319 318 319 317 320 320 319 321 320 321 321 324 327 330 334 334 336 337 337 336 335 333 334 335 334 334 336 336 335 333 326 320 320 322 321 321 318 314 311 310 310 310 310 310 311 311 312 311 310 310 310 310 309 309 309 309 309 309 309 309 309 309 308 308 309 310 312 314 315 315 316 316 316 316 316 315 314 314 313 313 312 312 313 313 314
320 322 325 324 330 330 326 322 320 321 320 321 319 317 319 318 319 320 320 321 320 319 319 324 326 330 335 334 336 337 337 336 335 334 333 334 333 334 336 337 336 334 329 322 320 321 322 322 321 318 313 312 312 312 312 312 312 312 312 312 311 311 310 309 309 309 309 309 309 309 309 308 308 308 308 310 311 314 315 315 315 316 317 317 318 317 317 316 315 314 314 314 314 314 313 313 313
320 321 325 325 326 325 324 323 320 321 321 321 319 318 318 317 319 320 321 321 319 319 321 327 327 329 334 333 334 334 336 336 335 335 334 335 334 334 335 336 337 335 332 326 321 320 321 323 323 321 317 315 315 316 316 316 316 316 315 315 314 313 312 310 309 309 309 309 308 308 308 308 308 308 309 312 314 316 316 316 316 317 318 319 319 318 318 317 317 317 317 317 317 317 317 316 316
320 320 324 326 326 325 325 323 321 322 321 319 318 318 318 316 318 319 320 319 318 319 321 326 326 325 327 327 325 328 335 336 335 336 335 335 335 335 335 335 336 336 333 329 323 320 320 321 323 323 320 318 318 319 320 320 320 320 320 319 317 316 314 312 311 310 309 309 308 308 308 308 307 308 311 314 316 317 317 317 317 318 320 320 320 320 319 319 319 319 319 319 319 319 318 319 318
319 321 325 326 327 327 328 324 320 324 323 318 317 317 318 317 317 318 319 318 319 319 320 324 325 324 323 324 320 322 333 336 335 336 335 335 336 336 336 334 335 336 335 331 326 322 320 320 321 322 323 321 320 320 321 321 322 322 323 323 322 320 317 315 313 312 311 310 309 308 308 308 308 310 313 316 317 317 317 318 318 319 320 321 321 321 321 320 320 320 320 320 319 319 319 319 319
319 325 327 324 328 328 329 325 318 321 322 318 317 318 318 317 317 317 319 320 321 320 322 327 327 325 324 326 323 323 332 336 335 336 335 335 336 336 335 334 333 334 334 331 329 325 320 320 320 321 322 323 323 322 322 321 321 322 323 323 323 323 322 320 318 316 313 311 311 311 310 310 311 313 315 317 318 318 318 318 319 319 320 321 321 321 321 321 321 321 321 321 320 320 319 319 319
320 325 324 329 335 325 321 320 316 318 319 317 317 317 317 317 317 317 320 321 321 326 329 329 328 326 326 327 323 325 332 335 335 335 335 333 333 333 333 333 331 332 333 331 329 326 322 322 322 321 320 321 322 323 324 322 322 322 323 323 324 324 324 324 323 321 317 314 313 313 313 313 313 314 316 317 318 319 319 319 320 320 320 320 321 321 322 322 322 322 322 321 321 321 320 320 320
319 319 323 336 333 319 315 316 316 318 318 317 316 317 318 317 317 316 319 319 320 327 330 329 328 327 326 325 324 327 331 334 335 335 334 333 331 330 330 330 329 329 330 329 329 327 324 324 324 323 321 321 322 322 323 323 323 324 324 323 324 324 324 325 325 324 323 320 318 316 315 315 315 315 316 318 318 318 319 319 319 320 320 320 321 321 321 322 322 322 322 322 321 321 322 322 321
318 318 326 331 320 315 317 315 317 318 317 318 317 317 317 316 317 316 317 319 318 320 322 323 324 325 325 325 326 327 331 333 334 335 334 333 332 329 328 327 326 327 328 328 328 327 326 326 326 325 324 322 323 323 322 323 323 323 324 324 324 324 324 325 325 325 325 324 322 320 319 318 318 317 317 317 317 318 318 319 319 319 320 320 320 320 320 321 321 321 321 321 321 321 321 321 321
318 318 321 321 315 316 318 315 317 317 317 318 315 317 318 316 316 316 317 319 318 317 317 317 317 319 321 323 326 327 330 332 333 334 334 333 332 330 329 328 326 327 328 328 326 326 326 327 328 327 327 325 325 325 324 323 322 323 323 323 324 324 324 325 325 326 326 325 325 324 323 322 321 320 320 319 318 318 318 318 319 319 319 319 320 320 320 320 320 320 320 320 320 320 320 320 320
319 319 317 316 315 317 316 316 317 317 317 316 315 317 317 316 316 316 317 318 317 316 316 316 315 316 317 320 324 326 328 330 331 332 332 331 331 329 328 328 327 327 327 327 325 325 326 326 327 327 327 326 327 326 325 325 324 324 323 323 323 323 324 324 325 325 325 325 325 325 324 324 323 322 324 324 322 321 320 320 320 319 318 319 319 319 319 319 319 319 320 319 319 319 319 320 320
318 319 317 316 315 316 316 316 316 317 317 316 317 317 316 316 317 315 315 316 316 316 316 315 316 318 319 321 322 322 324 326 327 328 329 329 329 328 327 327 326 326 326 327 325 325 325 325 326 326 325 325 325 325 325 325 324 325 324 323 322 323 323 324 324 325 324 324 325 325 325 325 324 323 324 325 325 324 323 324 324 322 321 320 320 320 320 320 319 319 319 319 319 319 319 319 319
317 319 317 316 315 316 316 315 316 316 316 317 317 316 316 316 315 315 315 316 316 316 316 315 317 318 320 320 319 320 322 323 325 327 329 329 329 329 328 327 327 327 326 326 326 325 325 324 325 325 324 323 324 324 324 324 324 325 324 323 323 323 323 323 324 324 324 324 324 324 324 324 325 325 325 325 326 325 325 326 326 325 325 324 324 324 324 323 322 321 321 321 320 320 320 320 319
316 317 317 316 315 315 315 315 315 316 316 316 316 314 315 315 315 315 315 316 316 316 317 316 317 318 319 318 317 318 319 321 322 324 327 328 329 329 329 328 328 328 326 325 326 325 325 324 325 324 324 324 324 325 324 323 323 323 323 323 323 323 323 323 323 324 324 324 324 324 324 324 324 325 326 326 326 326 326 326 326 326 326 326 326 326 326 326 326 325 325 324 323 323 323 323 322
314 315 316 315 315 314 314 314 314 315 315 315 316 315 314 314 315 316 315 315 315 316 317 316 316 317 317 318 317 316 316 317 318 320 323 326 327 328 328 327 327 327 326 326 326 325 325 325 325 325 325 324 324 325 325 324 323 323 323 323 323 322 323 323 323 323 323 324 324 324 324 324 324 324 325 326 325 325 325 325 326 326 326 327 327 327 327 327 327 327 327 326 326 326 326 325 325
312 313 315 314 314 314 313 314 314 315 315 315 315 314 313 314 315 317 316 315 315 316 316 317 316 317 317 317 317 316 316 315 316 318 319 321 323 324 326 326 326 326 326 325 325 326 326 325 325 325 325 324 324 324 324 324 323 323 322 322 322 322 322 322 322 322 322 323 324 323 323 324 324 323 323 324 324 325 324 324 324 324 325 326 326 327 327 327 328 328 328 328 327 327 326 326 326
311 313 316 314 313 315 314 313 314 315 314 315 315 315 315 316 316 316 315 315 316 316 316 317 317 317 317 318 318 317 316 316 317 317 316 315 317 320 322 323 324 325 325 325 325 326 326 325 325 325 325 324 324 323 323 323 323 322 322 322 322 322 322 321 321 321 321 321 322 322 322 323 323 323 323 323 324 324 324 324 324 324 325 326 326 327 327 327 328 328 328 328 327 327 327 327 327
312 313 315 316 314 316 316 313 314 314 314 315 314 317 319 318 315 315 315 315 316 317 317 318 318 318 318 318 318 317 316 316 315 314 314 314 315 316 317 319 321 322 322 324 325 325 325 325 325 325 324 324 323 323 323 323 322 322 322 322 322 322 322 321 321 321 320 319 320 320 319 320 321 321 322 322 323 323 324 324 324 325 326 327 327 328 328 328 328 327 327 327 327 327 327 326 326
314 313 315 318 317 321 318 312 314 314 314 314 313 318 323 319 315 315 314 315 316 318 318 318 318 318 318 319 318 318 316 315 315 313 313 314 314 314 315 317 319 319 320 320 321 322 323 324 324 324 323 323 323 323 322 322 321 321 321 322 322 322 322 321 320 320 320 319 318 318 318 318 319 319 320 321 321 322 322 323 324 325 326 326 326 327 328 329 328 327 326 326 326 326 326 326 325
316 314 318 317 316 324 320 311 313 315 314 313 313 318 323 319 314 314 314 315 316 316 317 318 318 318 318 318 318 317 316 315 314 314 314 313 313 314 314 315 317 317 318 318 319 323 326 325 324 323 322 322 322 322 322 321 321 321 321 322 322 322 322 321 320 320 320 319 317 317 317 317 318 318 318 319 320 321 322 322 323 324 325 325 325 326 326 327 327 326 326 325 326 325 325 324 324
321 319 322 319 315 319 318 313 313 313 314 313 313 317 321 317 313 313 314 314 315 315 316 317 317 318 317 317 317 316 315 315 315 314 314 313 313 313 314 314 315 316 317 317 320 324 326 326 325 323 322 321 321 321 322 321 321 320 321 321 321 321 321 320 320 320 320 319 317 316 315 315 316 316 316 317 318 320 323 323 324 324 324 324 324 324 324 323 323 323 323 323 323 324 324 324 324
321 319 319 321 318 316 317 317 313 312 313 314 313 315 319 316 311 312 314 314 314 313 314 316 316 316 316 316 316 316 316 315 314 313 314 314 313 313 314 314 314 315 316 318 320 322 324 325 324 322 322 322 321 320 321 321 321 320 321 321 321 321 320 319 319 319 319 318 317 315 314 314 313 314 315 317 317 319 322 323 324 325 325 324 323 323 323 322 322 323 324 323 322 323 324 324 323
319 318 317 318 316 315 317 318 314 313 314 314 314 314 317 317 312 311 312 312 313 313 314 315 315 314 315 315 315 316 316 315 314 313 313 313 313 313 314 314 314 315 316 318 321 323 324 325 324 323 321 322 321 321 321 322 322 321 321 322 321 320 319 318 318 317 316 316 316 315 314 314 313 313 314 315 317 318 319 320 321 322 323 323 323 323 323 322 324 326 326 325 323 323 324 324 323
319 320 320 320 318 316 318 318 314 313 314 314 315 315 315 316 315 312 312 312 312 313 313 313 314 314 314 315 315 315 315 315 314 314 314 314 313 313 314 314 314 315 316 317 320 322 323 323 324 324 321 321 322 321 321 322 323 322 321 321 319 318 316 316 315 315 314 315 315 315 315 315 314 314 315 318 319 319 321 321 321 321 322 321 321 321 322 322 324 325 324 323 322 322 323 324 325
315 315 318 320 319 316 317 318 313 310 314 315 314 315 314 315 316 312 310 312 311 311 312 312 313 314 314 315 314 314 315 315 314 314 315 316 314 313 313 314 314 315 316 318 319 320 320 320 321 321 319 319 320 319 319 320 320 320 319 317 316 314 314 314 314 313 313 314 314 315 315 315 316 317 319 322 322 321 323 323 322 322 322 322 321 320 321 322 322 323 322 321 321 323 324 326 327
312 313 315 316 318 319 316 315 314 311 313 316 315 315 314 314 316 311 309 310 311 311 311 312 313 314 314 315 314 315 315 315 315 315 316 316 316 315 314 314 314 315 316 316 317 318 318 319 318 317 317 317 317 316 316 316 316 316 316 315 314 314 314 314 314 314 314 315 315 315 315 315 317 318 321 323 323 323 324 324 323 324 324 323 321 321 321 322 323 325 323 321 322 326 327 326 325
312 312 313 315 318 319 315 313 315 313 313 317 316 315 315 315 315 311 308 309 311 313 313 313 314 314 314 314 314 315 315 315 315 314 315 315 316 316 315 315 313 313 314 314 315 316 317 317 316 316 316 316 315 314 315 315 314 314 314 315 315 315 315 315 315 315 316 316 315 315 315 316 317 318 320 322 322 323 324 323 324 326 326 323 322 322 322 324 326 326 323 321 324 325 325 324 323
313 314 314 317 316 317 316 313 314 313 313 315 316 315 316 314 314 313 311 311 311 312 314 314 314 314 314 314 314 314 314 315 315 314 314 314 315 316 315 315 314 313 314 314 314 315 315 315 315 315 315 315 314 314 314 314 314 315 316 316 317 317 317 317 317 316 316 315 315 315 315 316 317 318 320 321 322 322 322 322 323 324 324 323 323 325 324 324 324 323 322 322 323 322 322 323 324
313 317 318 318 318 317 317 315 315 313 313 314 314 316 319 319 316 314 312 312 311 311 313 313 314 314 314 314 314 314 315 314 315 314 314 314 314 314 314 314 314 314 314 314 314 314 314 313 314 314 314 314 314 313 313 314 315 315 316 317 318 318 318 317 317 315 315 315 315 315 316 317 318 319 320 322 324 323 322 323 324 324 323 324 324 323 324 326 323 322 323 324 324 323 324 324 324
313 317 319 319 319 318 317 317 317 314 314 316 312 315 326 329 321 316 313 311 310 311 310 311 314 314 313 314 314 314 314 314 314 314 314 314 314 314 314 314 314 314 313 314 314 314 314 313 313 314 314 314 313 313 313 314 314 314 315 316 316 316 316 315 315 315 315 316 317 318 318 318 319 320 322 324 325 324 324 325 325 325 324 325 324 322 323 326 324 324 326 326 326 325 324 323 323
312 316 321 321 318 319 320 318 318 318 316 315 313 315 323 325 320 320 317 313 312 311 309 309 312 314 313 314 315 314 314 315 314 315 314 314 314 314 314 314 314 314 314 314 314 314 314 314 314 314 314 314 314 314 313 314 314 314 314 314 314 314 314 314 315 316 317 318 320 320 320 321 321 322 324 325 325 324 324 325 325 325 325 324 323 322 324 325 325 326 326 325 324 323 321 321 321
315 318 321 322 318 321 323 317 320 323 316 316 320 317 315 316 317 320 317 315 317 314 311 309 309 312 314 314 315 315 315 315 315 315 315 314 314 314 314 314 314 314 314 314 314 314 314 315 315 315 315 315 314 314 314 314 314 314 314 314 314 315 315 316 317 318 320 320 321 321 322 323 323 324 325 325 324 324 323 323 324 325 324 323 324 325 327 327 326 324 323 322 323 323 323 323 322
320 321 319 321 319 321 322 318 321 320 314 319 323 315 313 320 324 322 316 315 318 319 318 313 308 310 313 313 315 315 315 315 315 315 315 314 314 314 314 314 314 315 315 315 315 315 315 315 315 316 316 316 315 316 315 315 315 315 315 315 315 316 316 318 320 321 321 321 321 322 324 324 324 324 325 324 323 322 321 320 321 322 321 322 325 327 326 324 323 322 323 322 322 323 323 323 321
318 318 317 320 320 320 321 323 324 317 313 321 323 315 313 321 328 325 316 314 319 321 321 315 309 311 313 313 314 315 315 315 315 315 315 314 314 314 315 315 315 316 315 316 316 316 316 316 316 316 316 316 317 317 316 316 317 317 317 317 317 318 318 320 321 322 322 322 323 323 323 323 322 321 321 320 319 319 319 319 319 320 319 319 321 321 320 319 320 321 321 319 318 319 320 318 318
314 318 319 319 321 324 327 330 326 315 316 326 325 318 313 315 324 324 316 316 320 319 319 315 309 311 313 313 313 313 314 315 314 315 315 314 315 314 315 315 316 316 316 316 316 316 316 316 316 315 315 315 316 317 317 317 318 318 319 319 320 321 321 322 322 322 322 322 323 323 323 321 319 318 318 318 317 317 317 316 316 316 315 315 316 316 316 316 316 316 315 314 315 316 316 314 315
315 324 322 317 322 325 328 329 322 316 321 325 321 316 312 314 322 323 317 317 317 314 317 318 312 311 313 313 314 314 314 315 315 316 316 316 316 315 316 316 316 317 316 316 315 315 315 314 314 315 314 315 316 317 318 318 319 320 320 321 322 323 323 323 323 322 323 323 323 322 321 319 318 318 317 316 315 315 314 313 313 313 313 313 313 313 313 313 312 313 312 312 312 312 312 312 312
317 322 319 318 322 320 320 323 320 320 321 317 313 314 314 316 318 318 316 316 315 309 310 314 312 312 314 313 313 314 314 315 316 316 317 317 317 317 317 317 317 317 316 316 315 315 314 314 313 313 314 314 315 317 318 319 320 321 321 322 324 324 325 324 324 324 325 324 323 321 319 317 317 316 315 314 314 313 313 312 312 312 312 312 312 312 312 312 312 312 311 311 311 311 311 311 311
314 317 317 320 321 314 314 318 317 317 318 313 311 313 316 317 317 317 317 313 312 309 308 312 312 312 314 313 313 314 314 315 315 315 315 315 315 316 316 316 316 316 315 315 314 314 314 314 313 312 312 313 314 315 317 319 320 321 323 324 324 325 325 325 325 326 326 324 321 318 317 317 316 314 313 313 313 312 312 312 312 312 312 312 312 312 312 312 312 312 311 311 311 311 310 310 309
315 317 317 321 323 319 317 319 319 317 316 313 310 313 319 319 316 315 312 308 309 310 310 311 311 312 314 313 314 314 314 314 314 314 314 314 313 313 313 313 313 313 313 313 313 313 313 313 313 313 312 312 312 314 316 318 320 321 323 325 325 325 325 325 325 325 323 320 317 316 316 315 314 313 313 312 313 313 313 313 312 313 312 312 312 312 311 311 311 310 310 309 308 308 307 306 305
316 316 316 317 321 324 319 317 322 321 318 315 311 315 323 319 313 312 309 307 308 309 310 311 311 312 313 314 315 314 314 314 314 314 313 312 312 312 312 312 312 312 312 312 312 312 312 312 312 312 312 311 311 312 315 317 319 321 323 325 325 325 324 324 324 321 318 316 315 315 315 313 313 313 313 313 313 313 313 312 312 312 312 311 311 310 310 309 308 307 306 305 304 303 302 301 300
315 313 316 317 316 322 320 312 315 317 315 317 313 315 322 317 313 317 316 313 312 310 310 310 311 313 313 314 314 314 315 314 313 313 312 313 313 312 313 312 313 312 312 312 311 310 311 311 311 311 311 311 311 312 314 316 318 320 322 323 322 322 321 320 318 316 315 314 314 314 313 313 313 313 313 313 313 312 312 312 311 311 310 310 309 308 307 306 305 304 303 302 301 300 299 299 298
317 314 316 316 312 319 321 314 315 315 314 320 315 313 320 317 316 324 320 314 316 315 312 309 310 312 313 314 314 314 314 313 313 313 312 313 313 313 313 313 313 312 311 311 310 310 310 310 310 310 310 310 310 312 313 315 317 318 318 318 317 316 316 315 314 314 314 314 313 313 313 313 313 313 313 312 312 311 311 311 310 309 309 308 306 305 304 303 302 301 301 300 299 299 298 298 297
315 315 314 316 316 318 318 315 317 314 312 321 318 312 316 317 319 325 318 315 320 317 313 311 310 311 312 314 314 313 313 312 312 313 313 313 313 313 314 313 313 313 311 311 311 310 310 310 310 310 310 310 310 310 311 312 313 313 313 313 312 312 313 313 314 313 313 313 313 313 313 313 313 312 312 311 311 311 310 309 308 307 306 304 303 302 302 301 300 299 299 298 298 298 297 297 297
311 313 311 315 319 320 319 316 317 316 314 321 319 313 318 320 320 323 318 318 322 317 317 316 309 308 312 313 313 312 312 312 312 313 313 313 314 314 314 314 314 313 312 312 312 311 311 310 309 309 309 309 309 309 309 310 311 311 311 311 312 313 314 313 313 313 313 313 313 313 312 312 312 312 311 311 310 309 308 307 305 304 303 302 301 301 300 299 299 298 298 298 298 297 297 297 297
312 314 313 313 314 315 318 316 318 322 320 322 318 316 327 327 318 317 316 316 318 315 318 316 307 307 311 312 312 312 312 312 312 313 313 313 314 314 314 314 314 314 313 313 312 312 311 310 309 309 309 309 309 309 309 310 310 310 311 312 313 314 313 313 313 313 313 313 313 312 312 312 311 311 310 309 308 307 305 304 303 302 301 300 300 299 298 298 298 298 298 297 297 297 297 297 296
314 314 314 314 314 316 317 314 317 319 317 321 318 317 328 328 316 315 316 314 312 308 309 310 308 309 311 311 312 311 311 312 312 312 313 313 314 314 314 314 314 314 313 312 312 312 311 311 310 309 309 309 310 310 310 311 312 312 313 313 313 313 312 313 313 313 313 312 312 312 311 311 310 309 308 306 305 304 303 302 301 300 300 299 298 298 298 298 297 297 298 297 297 297 297 297 296
Wind_Speed
1 2 5 6 7 5 3 4 1 2 2 1 2 0 1 2 2 3 2 2 4 5 10 14 13 12 9 10 12 12 9 1 3 2 4 9 18 22 19 17 16 14 13 12 9 7 7 6 9 11 14 18 19 19 20 18 16 16 16 15 14 14 13 12 10 9 5 4 8 10 10 12 14 14 15 16 16 15 14 14 14 14 14 14 13 13 12 11 11 10 8 8 10 10 10 10 11
1 2 5 7 6 4 1 3 1 3 3 1 2 2 1 3 3 5 4 4 6 10 18 21 20 18 15 14 11 8 10 6 2 8 15 20 23 20 17 17 15 14 13 12 10 8 8 8 10 12 15 18 19 19 19 18 17 16 15 14 14 13 11 10 8 6 4 5 10 11 12 14 15 15 16 16 15 14 14 14 14 14 14 14 14 14 13 13 13 12 11 10 11 11 11 10 11
1 3 5 7 5 3 0 3 1 1 2 1 3 2 1 3 4 6 6 11 15 18 20 19 16 13 10 9 7 5 5 7 11 19 24 24 23 21 18 17 15 15 13 12 10 8 8 10 11 13 16 18 18 18 19 18 17 16 15 14 13 11 9 7 5 5 5 7 10 11 14 14 14 15 15 15 14 13 13 13 13 13 13 13 14 13 13 13 13 13 12 12 12 12 11 10 10
2 4 5 4 3 2 2 3 1 4 2 3 2 3 0 5 6 5 10 16 16 14 12 12 10 8 11 10 8 9 6 8 17 23 24 23 21 22 20 17 16 15 14 12 10 9 9 10 11 13 16 17 17 18 18 17 17 16 15 13 12 10 9 7 7 7 8 9 10 12 14 13 13 14 14 14 13 12 12 13 12 13 13 13 13 13 13 13 13 13 12 12 13 12 11 10 9
3 5 4 3 1 1 2 2 1 3 3 4 3 3 3 6 6 6 10 12 12 12 13 11 6 7 13 10 6 7 8 12 16 19 23 21 19 21 20 17 17 15 14 12 10 9 10 10 11 12 15 16 16 17 17 17 17 15 13 12 11 10 9 9 9 10 9 10 12 13 12 12 12 13 13 13 13 12 12 13 12 12 12 12 12 12 13 13 13 13 12 12 13 12 11 10 9
4 4 3 2 1 1 1 0 1 1 4 5 4 4 6 7 9 10 11 11 13 13 12 11 9 10 11 10 8 11 13 12 14 17 20 20 19 20 19 18 17 16 14 12 11 10 11 11 11 12 14 15 15 15 16 16 16 15 13 12 11 10 9 8 10 10 10 11 11 12 11 11 12 12 12 13 12 11 12 12 12 12 12 12 12 12 12 13 13 13 12 12 13 12 11 10 9
4 3 2 1 1 2 2 2 4 3 3 6 6 6 8 9 13 15 12 10 10 10 11 13 15 13 8 7 10 11 10 8 14 16 17 19 19 19 19 18 17 16 14 13 12 11 12 12 12 12 13 14 15 14 15 16 17 15 12 12 11 10 8 8 10 10 10 10 10 10 10 11 11 11 11 12 12 12 12 12 11 12 12 11 11 12 12 12 12 12 12 12 12 11 10 10 8
3 2 2 2 1 3 2 2 4 3 0 3 7 10 12 15 16 14 8 7 7 8 13 15 16 11 3 5 6 7 8 7 13 15 16 18 19 20 19 18 18 17 15 14 13 12 12 12 12 12 12 14 15 15 15 17 17 15 12 11 11 10 9 9 10 10 9 9 9 8 9 10 10 10 10 11 12 11 11 11 11 11 12 12 12 12 12 12 12 11 11 12 12 11 10 9 8
3 1 2 2 1 3 1 2 3 3 1 3 6 9 16 19 16 12 8 6 10 12 13 14 13 9 5 8 9 9 11 8 10 14 17 19 20 20 19 18 17 17 16 15 14 13 12 12 13 13 12 13 15 16 17 18 17 15 12 11 11 9 9 9 10 9 9 8 8 8 9 10 9 10 10 11 12 11 11 11 11 12 12 12 12 11 11 12 11 11 11 11 11 10 9 8 7
2 2 1 2 1 2 3 3 2 2 1 4 6 13 18 17 13 14 12 8 13 14 11 12 9 11 11 10 10 11 13 10 11 15 18 19 19 19 19 17 16 17 17 16 14 13 12 12 12 12 12 11 13 16 17 19 18 15 12 10 9 9 9 9 9 9 8 7 7 8 8 9 9 10 10 11 12 11 10 11 11 12 12 12 12 11 11 11 11 10 10 10 10 9 8 7 6
2 2 2 3 2 0 3 3 2 2 1 1 5 16 18 16 14 13 12 10 12 14 12 10 9 17 15 8 9 13 15 14 13 17 19 18 17 18 18 16 15 15 16 16 15 13 12 12 12 12 11 10 11 14 16 17 17 15 12 9 9 9 9 9 9 8 7 7 8 8 8 9 10 10 10 12 11 11 11 11 11 11 12 12 12 12 11 11 10 10 10 9 8 8 7 6 5
2 2 3 3 2 2 4 3 3 3 1 0 4 12 15 17 16 10 12 12 12 15 12 10 14 18 10 4 11 16 19 16 14 17 19 18 17 17 17 15 15 14 15 16 15 14 12 12 12 12 12 11 12 13 14 15 15 14 13 11 10 10 9 9 8 7 7 8 8 9 9 10 11 11 11 12 11 11 11 11 11 12 12 12 12 11 10 10 10 10 9 8 8 7 6 5 4
2 2 5 2 3 3 3 3 4 1 1 4 5 9 15 17 17 16 16 13 14 13 7 11 19 17 6 5 15 20 22 19 17 19 20 20 18 16 15 15 15 15 15 15 15 14 13 12 12 12 12 12 13 14 14 14 14 13 13 12 11 10 9 9 9 8 8 9 9 10 10 11 11 11 12 12 12 10 10 11 11 11 11 11 11 10 10 10 9 9 9 8 8 7 6 5 4
2 3 3 1 1 2 4 2 2 3 3 6 5 9 13 12 16 22 19 11 10 11 8 13 22 13 6 8 13 23 24 22 22 21 21 19 17 15 13 14 15 15 15 15 15 14 13 12 12 12 12 13 14 14 14 14 13 13 12 11 10 9 10 10 9 9 9 9 9 10 10 11 11 12 12 12 12 11 10 10 10 11 11 11 11 10 10 9 9 9 9 9 8 8 7 6 5
1 2 3 1 2 1 3 2 4 6 4 5 5 10 11 9 15 21 20 13 6 13 14 14 19 7 8 13 12 27 27 24 27 23 22 19 17 16 14 14 14 15 15 15 14 14 14 13 12 12 12 13 14 14 14 14 13 13 12 11 10 9 10 10 9 9 9 9 9 10 10 11 11 11 11 11 11 11 10 10 10 10 10 10 11 10 10 9 9 9 9 9 8 8 8 7 7
1 1 4 1 2 2 3 2 4 4 5 5 8 12 11 8 15 15 14 15 11 14 13 12 16 4 11 16 10 26 30 28 29 24 24 21 19 18 16 16 14 15 15 17 16 15 14 13 13 12 12 13 13 13 13 13 13 12 12 11 10 9 9 9 9 9 9 9 9 10 10 11 11 11 11 10 10 10 10 10 9 9 9 9 10 10 9 9 9 9 8 8 7 7 7 7 8
1 1 3 1 1 3 3 4 4 4 5 6 10 12 10 6 12 12 11 17 16 13 9 10 13 5 10 11 6 25 32 31 31 26 27 24 24 22 21 19 17 18 17 18 17 16 15 14 14 13 13 13 12 13 12 12 11 11 11 10 10 9 9 9 8 8 8 9 9 10 10 11 11 10 10 9 9 9 9 9 8 8 8 8 8 8 8 8 8 8 8 7 7 7 7 7 7
0 2 2 2 2 4 5 7 7 5 6 9 13 13 13 9 10 14 12 14 16 12 9 10 10 7 10 9 10 26 33 35 33 28 30 28 28 26 25 24 21 21 20 20 19 18 17 15 15 14 13 13 12 12 11 11 11 10 10 9 9 8 8 9 8 8 7 8 9 9 10 11 11 10 9 9 8 8 8 7 7 7 6 6 7 7 7 6 7 7 6 6 6 7 7 7 7
3 2 2 4 4 5 4 7 10 8 10 13 14 15 16 13 15 18 10 9 15 11 7 8 10 11 12 12 17 28 34 38 34 30 32 31 31 30 28 27 24 24 23 22 21 19 18 17 16 15 14 13 13 13 12 12 10 10 10 9 8 7 7 7 8 8 7 7 7 8 9 9 10 9 8 8 8 7 6 6 6 5 5 5 5 5 5 4 5 5 4 4 5 6 6 7 7
4 2 1 5 5 4 6 8 15 14 19 18 14 15 15 16 18 16 11 10 10 9 9 9 12 15 16 18 24 29 34 39 36 32 33 33 32 30 28 27 25 26 25 22 21 20 20 18 17 16 15 14 14 14 13 12 11 10 10 9 9 8 7 6 6 6 7 7 6 6 7 8 8 8 7 7 7 6 5 4 4 4 3 3 3 3 3 3 3 3 3 3 4 4 5 6 7
3 4 4 6 2 3 7 7 12 14 24 25 17 13 12 16 16 15 18 11 3 11 17 14 14 20 21 23 26 28 33 39 38 34 34 33 32 30 28 25 23 25 25 23 22 21 21 19 18 17 17 16 15 14 14 13 13 12 11 10 10 9 8 7 6 6 6 6 6 6 5 6 7 7 7 5 5 5 4 3 3 2 2 2 1 1 1 1 2 2 3 3 4 4 5 6 6
3 4 8 8 2 2 7 6 9 14 23 22 17 12 12 16 13 16 21 10 7 16 19 15 15 19 21 23 25 28 33 38 39 37 37 35 34 32 29 26 24 24 26 25 22 22 21 21 20 19 18 17 16 15 14 14 14 13 13 12 11 10 10 9 8 7 6 6 7 6 6 5 5 6 6 5 4 4 3 2 2 1 1 1 1 1 2 2 3 4 5 5 5 6 6 7 7
4 5 7 7 5 5 5 5 11 19 21 20 17 13 15 15 9 16 22 13 11 14 15 15 14 15 19 21 24 27 31 36 39 39 38 37 35 33 30 28 25 24 27 26 23 22 22 22 21 20 19 18 17 17 16 15 14 14 14 13 12 11 11 10 9 9 8 7 7 7 6 6 6 5 5 4 4 3 3 2 3 2 2 3 3 3 4 4 5 6 7 7 7 8 8 9 9
7 4 6 5 6 9 8 6 12 20 21 21 20 16 17 14 8 13 19 15 10 10 12 15 15 16 20 21 23 24 27 31 35 36 37 36 34 32 29 27 25 24 26 27 25 24 22 21 21 21 19 18 18 18 17 16 15 14 14 14 13 12 12 11 10 10 10 8 8 8 7 7 7 6 5 5 5 5 4 4 4 4 4 4 5 5 5 5 7 8 8 9 8 9 9 10 11
7 5 7 4 5 9 10 8 12 18 17 19 19 16 17 14 9 12 16 13 9 9 12 17 19 20 22 22 21 22 24 27 30 34 35 35 33 32 30 28 26 25 26 27 27 25 23 22 21 21 20 18 17 18 17 16 15 15 14 13 13 13 12 12 12 12 12 10 10 9 9 9 8 6 6 6 7 7 6 7 7 6 6 6 7 7 7 7 7 9 10 10 9 10 10 10 11
6 10 11 5 4 6 7 7 11 15 13 18 15 8 12 11 7 9 14 13 11 11 11 18 23 23 24 23 21 21 22 24 26 31 33 34 33 33 32 30 29 27 25 26 27 26 23 23 22 21 20 19 18 17 16 16 15 15 14 13 13 12 11 12 13 12 13 13 12 11 10 10 9 8 9 9 8 9 9 9 10 9 9 9 9 9 9 9 9 10 11 11 11 11 11 12 12
11 12 13 7 5 4 5 5 9 11 11 18 13 4 7 9 5 6 13 16 14 13 12 18 24 24 25 24 23 22 20 20 21 25 30 32 34 33 32 30 30 28 25 26 27 26 24 23 22 21 20 19 19 18 17 16 16 15 14 13 13 12 11 12 12 12 13 13 13 12 12 12 11 10 10 11 11 10 11 11 11 11 10 11 11 11 11 11 11 12 12 12 13 13 13 14 14
19 10 8 4 4 3 5 6 8 8 6 14 12 6 2 4 3 7 16 20 17 16 17 21 25 24 25 25 24 23 21 19 20 23 27 30 32 32 31 31 30 28 26 27 25 25 24 23 21 21 20 19 19 19 18 17 16 15 15 14 13 12 12 12 12 12 13 13 14 14 13 13 13 12 12 12 12 12 13 12 12 12 11 12 12 12 13 13 13 13 13 14 14 15 15 15 16
18 8 6 1 1 1 6 7 8 6 4 11 12 5 2 2 8 10 16 23 19 18 19 22 26 25 25 25 25 25 22 21 23 25 24 25 27 28 29 29 28 27 27 25 23 24 24 23 22 21 21 20 19 18 18 17 16 16 15 14 13 13 13 13 12 12 12 12 13 14 14 14 14 14 14 13 14 14 14 14 14 13 12 13 14 14 14 14 15 14 14 15 16 16 17 17 17
12 6 4 1 2 3 7 7 7 5 4 12 10 2 5 7 15 11 13 23 22 20 22 23 26 26 26 26 26 26 24 24 25 24 22 22 24 25 26 26 27 26 26 25 24 24 23 22 22 22 22 21 19 18 17 17 17 17 16 15 14 14 14 13 13 12 12 12 13 14 14 14 14 14 14 15 15 15 15 15 15 15 14 15 15 15 15 15 16 16 16 16 17 18 18 18 19
4 2 2 3 3 4 6 6 7 4 6 10 6 3 5 8 17 14 13 24 25 24 25 25 26 26 27 27 27 26 25 25 24 22 22 22 22 23 24 25 26 26 25 26 25 24 22 22 22 23 23 22 21 20 19 17 17 17 16 16 16 16 16 15 14 13 13 14 14 14 14 14 15 15 15 16 16 16 17 17 17 17 17 17 18 17 17 17 18 18 17 17 18 18 19 20 20
0 2 3 0 4 5 6 5 10 6 5 7 5 2 5 7 13 14 16 25 27 27 27 26 27 26 27 27 27 27 25 25 24 24 24 23 23 22 23 24 25 26 26 25 24 23 22 22 21 21 22 21 21 21 19 18 18 18 18 17 17 17 17 16 15 15 15 16 16 15 15 15 15 15 16 17 17 18 18 18 19 19 19 20 19 19 18 18 18 19 19 18 19 20 20 20 19
3 2 3 2 4 3 4 4 9 7 3 4 4 2 4 6 7 10 19 27 28 26 27 28 28 27 27 27 27 27 26 26 26 26 26 26 25 24 23 23 24 25 25 25 24 24 24 23 22 21 21 20 20 20 20 20 19 18 18 19 18 18 19 18 17 17 17 17 17 16 15 15 15 15 16 17 18 18 19 20 21 21 21 22 21 20 20 19 19 20 20 19 19 20 21 20 18
4 1 2 3 3 3 2 3 7 7 3 4 5 2 5 6 5 6 19 27 27 25 26 29 29 28 28 28 28 28 27 27 28 28 27 27 26 25 24 23 23 24 25 25 25 25 25 24 23 22 21 20 19 19 20 20 19 18 19 20 21 20 20 19 18 18 18 18 18 17 16 15 15 15 16 17 18 18 18 19 21 22 22 23 22 21 20 19 20 20 21 22 20 18 19 19 19
3 2 2 2 2 2 4 3 4 7 3 5 6 3 9 9 6 5 15 22 24 25 26 27 29 29 28 28 29 28 29 29 28 27 26 26 26 25 25 23 24 25 25 26 27 27 27 26 25 24 22 21 21 20 20 20 20 20 20 21 23 23 22 21 19 19 18 18 18 17 17 16 15 15 16 16 17 17 16 16 18 19 19 21 21 21 22 20 20 21 22 23 21 18 18 19 20
6 5 4 4 4 4 4 4 4 5 5 5 7 7 11 10 7 7 12 16 19 23 22 23 26 28 27 28 29 29 30 29 26 25 25 26 26 25 25 24 25 25 26 27 28 29 29 28 27 26 25 23 22 22 22 22 22 22 22 23 24 24 22 20 19 18 17 17 17 17 17 16 16 16 15 16 16 17 16 15 15 15 15 16 17 19 19 18 18 20 20 18 17 16 17 20 20
5 2 2 4 5 5 4 3 5 1 5 6 7 8 9 7 8 9 11 11 14 19 19 20 24 27 28 28 29 29 29 27 23 24 26 26 26 25 25 25 25 27 28 29 30 31 31 30 29 28 26 25 24 24 24 24 24 24 24 23 22 21 20 19 17 17 16 15 16 16 16 15 15 15 15 16 16 17 17 17 17 13 11 13 15 16 14 14 15 16 16 15 15 17 20 21 21
4 2 2 4 4 5 4 3 5 2 4 4 3 6 9 8 9 9 7 7 14 21 21 22 26 28 29 30 30 30 29 26 24 25 26 27 28 27 27 27 27 29 30 30 31 31 32 31 30 28 26 26 25 25 25 25 25 24 22 20 18 17 17 16 15 14 13 14 15 15 14 14 15 15 15 16 16 16 16 17 15 11 12 15 15 14 13 14 15 17 19 17 17 21 22 21 21
6 3 2 3 4 3 4 3 4 3 2 4 1 4 9 9 8 9 9 11 17 24 25 26 28 28 31 32 31 31 30 29 26 25 25 27 28 28 29 29 29 29 29 29 30 30 31 32 30 29 28 27 26 25 25 24 23 22 20 18 16 15 15 15 14 13 13 14 15 14 14 14 14 14 14 15 15 15 15 15 13 11 15 16 13 13 13 13 17 19 20 17 17 19 20 19 19
5 3 4 3 3 2 3 3 2 2 1 1 2 3 7 7 5 7 15 21 20 22 25 27 28 29 31 31 30 31 31 30 28 26 25 26 27 29 30 31 31 30 30 30 31 31 31 31 30 30 29 27 26 25 24 23 22 21 20 19 17 16 15 15 16 16 16 16 15 14 13 13 13 13 14 13 14 14 13 12 12 12 14 14 12 13 14 14 16 15 13 13 15 17 19 19 19
4 5 5 3 4 5 4 3 1 2 2 1 3 2 5 6 5 6 13 16 17 19 22 25 30 33 32 30 31 32 31 29 28 27 26 26 27 29 30 30 30 31 31 31 30 31 31 30 29 29 28 27 26 25 23 23 23 23 22 21 21 20 20 19 19 18 18 17 14 13 12 12 13 13 13 13 13 13 12 11 12 13 13 12 13 14 15 15 15 12 12 16 17 19 20 21 21
5 5 7 8 9 7 4 5 5 3 3 2 0 1 5 5 5 8 7 5 9 15 17 23 31 34 33 33 34 34 32 30 29 28 27 27 27 28 29 29 30 32 32 30 29 29 29 29 29 29 29 28 27 25 24 24 25 24 24 24 24 24 24 22 20 18 16 13 11 11 12 13 13 13 14 14 14 14 12 12 13 14 13 14 15 14 13 15 15 14 17 20 19 19 19 21 23
5 5 7 7 7 7 7 7 5 2 3 3 1 4 5 5 4 8 5 4 8 10 11 20 29 31 33 37 37 35 33 32 31 29 29 29 28 28 29 29 30 30 30 29 29 29 29 29 30 30 30 29 28 27 26 26 26 26 26 26 25 25 24 22 20 17 14 12 11 12 13 14 14 15 15 15 15 14 14 14 15 15 15 15 15 14 12 14 17 18 19 18 16 16 18 21 21
5 5 7 8 8 8 9 9 5 3 3 3 4 3 3 4 5 6 3 3 8 8 9 17 27 31 33 36 37 36 35 33 31 31 30 30 30 29 29 28 28 28 27 27 29 28 29 29 30 30 30 30 29 28 28 28 28 27 26 26 26 26 24 21 19 16 14 13 14 15 15 15 16 15 15 15 15 16 16 16 16 17 17 14 13 15 17 18 19 17 16 15 15 16 17 17 17
6 5 6 7 7 7 7 7 4 1 2 2 4 2 2 5 6 6 2 2 7 9 9 13 22 31 33 35 37 36 35 34 32 31 30 30 30 29 29 28 27 27 26 27 27 27 28 29 30 31 31 31 30 29 29 29 28 28 27 27 27 26 24 22 20 17 16 16 17 17 16 16 17 17 17 17 17 18 18 17 16 17 17 15 14 16 18 19 17 15 15 16 16 16 16 16 19
4 7 6 5 5 5 4 5 4 3 1 5 6 2 2 5 6 4 2 2 6 8 8 10 18 26 30 34 36 35 34 33 33 32 31 31 31 30 29 29 29 28 27 27 27 28 28 29 30 31 32 32 31 30 30 30 30 29 29 29 28 26 25 23 21 19 19 19 19 19 19 19 19 20 19 18 17 17 17 16 15 16 17 16 17 18 18 18 17 17 18 19 18 18 19 20 20
9 8 6 6 5 4 3 3 4 3 2 6 7 3 2 3 5 4 4 4 6 6 6 8 12 17 22 28 31 31 31 30 31 31 30 31 32 32 32 31 30 29 28 28 29 29 30 30 31 32 32 32 32 32 31 31 31 31 31 30 28 27 25 23 22 21 21 21 21 21 21 21 20 19 18 16 15 14 13 13 13 13 14 14 14 15 16 16 16 17 17 17 17 18 19 19 17
8 5 4 5 3 4 4 4 3 2 5 6 5 2 3 4 5 5 6 6 6 6 7 8 10 13 16 20 23 25 25 26 28 28 28 29 30 31 33 32 32 31 30 30 30 30 31 32 33 33 33 33 33 33 33 33 32 32 32 30 28 26 25 23 22 22 22 23 23 22 21 20 18 16 15 14 13 11 10 9 9 9 9 9 10 10 11 12 11 12 12 12 12 13 14 14 14
4 4 6 5 1 2 0 3 1 3 5 4 2 1 2 5 7 8 9 11 9 9 11 11 12 14 14 15 19 21 23 25 27 27 26 27 27 29 30 32 32 32 32 32 31 31 32 33 34 34 35 35 35 35 34 34 33 33 32 30 28 26 24 23 23 23 24 24 23 22 20 17 16 14 12 10 9 7 7 6 6 6 6 6 6 6 6 6 6 7 7 7 7 7 8 9 9
4 6 6 4 3 3 3 3 2 3 4 3 2 2 2 3 6 10 13 15 11 9 14 16 15 14 12 11 14 17 21 23 23 24 24 25 26 27 29 31 32 33 33 33 33 34 34 34 35 35 35 35 36 36 35 34 33 32 31 29 27 26 24 24 25 25 26 25 23 20 17 15 13 11 9 8 7 6 7 6 6 6 5 4 4 3 3 3 3 3 4 4 5 5 6 7 8
3 4 6 5 5 4 4 3 3 4 2 2 2 1 3 3 4 7 11 15 13 11 15 19 18 16 11 10 13 15 18 19 20 21 23 24 25 26 28 29 31 32 32 33 34 35 35 36 36 35 35 35 36 35 34 33 32 31 30 29 27 26 26 26 27 27 26 24 21 17 14 13 12 11 10 9 8 8 8 7 6 6 5 4 2 1 0 1 1 2 3 4 5 6 7 8 9
3 2 5 4 5 5 3 3 5 4 1 1 2 3 4 4 6 8 8 11 12 9 10 13 16 17 13 14 16 17 18 18 19 20 21 22 23 24 25 26 27 28 29 30 32 33 34 34 34 34 34 34 34 33 32 31 31 31 30 29 28 28 28 29 29 27 24 21 17 14 13 13 13 12 11 9 9 8 7 6 6 5 4 3 2 2 1 2 2 3 4 5 6 6 8 9 10
2 3 4 4 3 6 4 2 0 3 1 2 1 3 4 3 6 8 5 6 9 7 6 8 11 12 15 18 19 18 18 17 18 18 18 18 19 20 21 21 22 23 24 26 27 29 31 31 31 31 32 32 32 32 31 30 30 30 30 29 29 29 30 29 27 24 20 18 16 16 15 15 13 11 9 8 7 7 7 6 5 4 3 2 2 1 1 3 3 4 5 6 7 8 9 10 11
4 4 6 3 2 4 4 2 2 3 2 4 0 3 4 1 3 6 7 6 9 7 6 7 8 11 15 19 19 18 18 17 17 17 16 16 16 16 16 17 18 19 20 21 23 25 27 27 28 29 30 31 31 31 30 30 30 30 30 30 30 29 28 25 22 19 18 18 18 17 16 13 11 10 9 8 8 7 7 5 5 3 2 2 1 1 2 3 4 5 6 7 8 9 10 11 12
3 4 5 4 2 2 1 3 1 1 3 4 3 3 3 3 4 4 5 7 9 8 6 6 9 14 18 20 20 19 18 18 17 16 15 15 15 15 14 14 14 15 16 18 20 22 23 25 26 27 28 29 29 30 30 30 29 29 29 28 27 26 23 21 20 20 20 19 18 16 14 12 11 10 10 9 9 8 7 6 5 4 2 2 1 2 2 3 4 5 6 7 8 9 11 12 12
3 3 3 2 2 4 3 3 3 3 3 3 3 2 2 5 6 5 7 9 8 8 6 6 13 20 22 22 21 20 20 19 18 16 15 15 15 14 14 13 12 12 13 15 17 19 20 22 23 24 25 26 27 28 28 29 28 28 27 25 23 22 21 22 23 22 20 18 16 14 13 12 12 12 11 10 10 8 8 7 5 4 3 1 0 1 2 3 4 5 6 7 8 9 10 12 13
2 3 4 2 1 2 2 1 3 4 3 3 2 2 5 6 5 7 11 10 7 8 6 8 15 21 23 23 22 21 21 19 17 16 16 15 15 14 13 13 12 12 12 13 14 15 17 19 20 20 22 23 24 25 25 26 26 25 24 23 23 24 24 24 23 21 19 17 16 15 14 14 14 13 12 11 10 9 8 7 5 4 2 1 1 2 3 4 4 6 7 8 9 10 11 13 14
4 5 7 6 4 3 2 3 1 2 2 4 4 3 7 6 4 7 10 8 6 7 7 11 17 19 20 22 23 22 20 18 17 17 16 16 15 14 13 13 13 12 12 12 12 13 14 16 18 19 20 21 22 23 24 24 24 25 24 25 25 26 26 24 22 20 18 17 17 16 16 15 15 14 13 12 10 9 8 6 5 3 2 1 1 2 3 4 5 6 8 9 11 12 13 15 17
Wind_Direction
233 270 275 275 297 306 347 10 353 349 73 118 300 140 181 203 152 110 105 84 70 42 81 87 77 81 91 103 112 96 61 37 197 146 162 146 149 160 155 151 150 148 142 135 131 123 127 125 128 129 130 130 128 126 120 119 118 119 118 117 115 113 115 116 116 104 85 70 81 87 93 101 103 99 97 97 95 93 92 91 92 93 93 95 97 97 100 106 110 113 109 101 98 96 96 95 90
238 259 270 275 300 306 320 51 53 334 31 38 296 158 196 346 79 138 151 110 120 111 94 86 79 81 93 103 100 78 50 33 187 136 128 141 151 156 152 151 148 147 145 138 133 128 133 132 136 135 136 134 132 131 125 123 122 122 119 117 118 119 123 123 118 106 91 81 87 93 99 100 99 98 98 100 98 96 94 94 94 95 96 96 96 96 99 103 107 109 106 102 100 100 100 97 91
253 255 267 283 298 299 340 60 72 58 52 237 266 260 53 85 146 180 150 125 125 111 95 87 78 76 91 90 57 66 70 72 128 131 132 149 154 152 150 150 150 150 147 138 133 132 134 136 142 140 141 138 134 136 132 128 127 126 124 123 126 128 131 131 122 113 109 98 94 98 99 98 98 100 104 105 101 97 97 99 97 97 100 100 100 100 101 103 104 103 102 100 99 102 103 100 93
253 262 267 290 301 317 54 64 140 124 154 208 222 286 195 142 177 182 131 126 126 111 101 92 68 66 87 91 80 85 95 107 131 135 141 156 156 148 148 152 155 153 145 137 130 131 134 135 142 143 145 143 137 138 138 136 135 132 131 133 135 136 135 129 117 109 107 106 105 103 100 100 100 100 105 108 105 99 95 96 95 93 95 97 99 99 101 102 102 102 102 101 100 103 107 105 97
235 263 267 290 324 348 69 67 86 107 211 190 150 255 213 166 176 159 128 124 120 110 110 102 79 86 85 86 91 99 126 130 137 143 146 155 155 146 148 156 157 152 143 133 128 130 133 131 139 145 147 149 144 139 142 144 141 136 137 141 141 137 130 119 109 106 107 108 109 107 106 104 102 100 104 109 106 99 91 91 92 92 91 92 95 97 99 101 100 99 100 101 103 106 110 109 103
220 250 278 304 0 23 81 313 293 266 234 168 143 212 196 181 166 138 119 109 108 111 113 110 121 114 85 71 85 122 137 138 148 153 149 153 153 148 152 158 157 151 142 132 129 130 129 127 134 143 149 154 153 145 147 151 146 141 140 141 140 133 123 113 108 109 110 110 109 111 114 109 103 103 104 104 101 92 88 87 89 91 90 90 92 92 95 97 97 96 99 102 107 110 112 110 105
218 240 299 340 37 20 106 196 240 252 235 166 158 175 186 190 159 132 119 107 97 108 118 125 131 112 86 87 97 130 140 150 159 154 151 151 152 152 156 160 159 152 142 134 128 128 126 124 128 137 146 156 162 158 155 156 151 145 141 137 136 131 122 113 112 112 112 111 111 113 113 109 103 103 101 101 99 92 89 87 86 87 88 90 90 91 93 95 96 97 100 104 110 113 112 110 104
210 202 39 83 17 18 106 221 246 218 46 161 165 168 176 175 156 136 130 128 105 112 124 133 132 104 91 132 109 143 147 163 163 154 153 153 154 157 160 161 161 153 142 136 129 126 125 124 127 131 142 154 165 168 166 164 156 150 143 136 133 129 122 116 117 118 117 118 118 116 110 107 103 104 103 103 103 98 96 93 89 88 90 90 90 93 96 96 97 99 102 105 110 112 111 110 105
186 153 39 80 158 11 11 293 257 228 308 146 154 171 171 164 154 137 129 124 120 125 136 144 134 118 135 117 108 143 150 168 172 160 156 152 156 158 161 163 163 155 144 139 133 128 125 128 132 133 140 150 161 167 169 167 162 157 148 137 133 128 123 117 120 122 122 125 125 120 114 111 108 110 110 107 107 103 100 98 95 94 93 92 92 95 96 96 98 100 102 106 110 112 113 111 107
155 112 77 77 131 5 317 288 262 249 208 172 166 170 167 163 152 138 133 130 130 123 138 154 132 132 136 109 114 146 155 174 178 165 158 153 156 159 160 163 165 157 148 144 138 132 129 130 133 136 139 142 153 157 160 165 165 163 154 141 136 131 125 122 121 123 124 119 117 119 119 116 113 113 111 110 110 107 103 100 98 96 95 95 94 93 93 94 97 100 101 107 110 113 115 113 111
125 59 117 78 78 106 245 263 272 256 239 244 174 170 169 161 143 131 130 131 134 121 136 153 127 130 126 109 131 148 159 174 181 166 160 160 161 158 158 161 166 161 153 148 142 138 134 132 132 133 134 132 136 139 145 156 163 166 163 151 141 137 131 126 122 121 119 108 109 113 114 112 108 107 107 112 112 108 104 99 97 95 94 93 92 90 91 93 94 98 100 106 110 113 115 114 110
141 18 81 96 155 192 213 190 218 240 294 256 180 182 177 155 137 131 137 135 132 125 141 154 144 138 111 101 144 150 162 173 182 170 166 168 164 157 157 161 164 165 161 155 148 144 139 135 132 130 132 130 126 126 131 141 151 157 160 154 143 140 132 125 122 117 115 110 113 114 111 108 106 105 105 110 111 108 104 99 97 93 92 90 91 91 90 91 91 93 97 100 104 108 109 107 101
156 92 88 132 195 174 182 168 203 186 158 207 188 181 170 153 144 149 144 137 137 131 152 160 153 145 98 124 150 157 167 173 177 174 174 171 166 157 159 164 165 167 166 163 156 152 146 140 135 132 132 130 129 126 128 132 137 142 144 145 139 136 129 122 120 118 119 117 119 118 114 110 107 108 108 110 109 105 102 99 99 95 95 93 92 91 87 87 88 91 92 93 94 95 96 93 86
127 93 104 196 221 143 155 150 203 150 198 230 187 164 162 156 152 152 143 135 141 134 139 159 159 146 115 135 158 171 171 173 172 173 179 174 169 164 166 170 169 169 169 170 165 161 156 148 141 135 133 130 130 128 129 132 132 135 134 135 133 130 125 119 118 118 120 119 120 117 113 112 110 111 111 112 109 103 101 100 100 98 97 93 90 86 85 86 86 89 88 88 88 86 87 81 74
113 46 87 140 339 287 181 168 175 158 206 230 177 149 138 147 158 155 147 145 134 129 132 158 169 160 163 165 180 182 174 171 168 171 179 177 176 174 179 179 178 176 173 175 172 171 166 159 150 140 138 133 130 130 129 130 130 131 128 128 127 124 121 117 119 120 121 119 117 113 111 111 111 113 112 111 109 106 105 102 101 100 97 94 90 85 83 85 84 86 84 83 83 81 80 74 66
37 39 73 54 291 256 233 174 133 138 223 216 161 135 111 130 158 156 151 152 133 135 143 162 176 202 187 179 187 179 170 168 168 173 178 176 180 182 187 187 187 184 180 181 177 178 176 169 164 152 148 141 137 136 133 134 130 129 127 125 122 117 117 117 122 122 121 118 116 115 112 111 111 112 112 111 110 109 109 106 103 100 98 96 93 88 83 82 81 80 79 77 75 73 69 65 59
347 105 73 325 230 226 221 176 169 168 209 203 171 145 115 128 151 148 150 153 141 145 155 155 174 189 178 184 189 170 166 168 170 175 178 176 181 183 188 191 192 189 187 187 181 181 181 178 176 168 162 155 150 147 144 143 137 136 131 127 124 118 117 118 124 124 123 122 120 120 118 116 114 113 112 110 109 109 110 108 107 103 99 97 93 90 84 80 81 77 75 70 63 57 52 49 46
224 115 117 231 201 213 196 182 194 166 168 185 186 163 136 142 145 141 139 141 136 140 145 145 166 155 162 191 184 168 164 169 174 178 179 180 184 186 190 193 196 194 191 188 185 185 185 184 183 181 176 168 164 160 157 157 151 147 141 136 133 127 127 125 126 125 127 129 126 126 124 123 120 119 117 113 111 109 111 110 108 105 99 96 92 91 85 79 78 74 72 64 53 46 40 34 32
188 134 128 222 209 212 221 205 192 164 167 175 178 164 147 151 149 146 141 136 136 128 123 135 149 143 156 176 173 168 166 172 179 183 185 186 190 193 195 196 197 196 194 191 189 189 188 189 189 188 185 181 178 174 170 169 166 162 156 153 148 144 142 137 135 131 130 133 132 132 131 130 127 126 124 119 118 113 112 112 108 107 101 95 91 91 88 79 73 66 62 51 40 34 26 19 16
212 181 193 239 228 242 276 224 197 181 167 163 169 167 158 157 154 156 154 145 148 150 154 150 146 146 152 163 170 171 169 175 182 187 191 193 197 201 202 201 200 199 199 196 192 192 193 193 195 194 190 189 188 186 184 182 179 178 174 170 167 166 163 157 153 146 142 138 137 140 139 138 134 131 131 127 125 123 121 118 116 113 109 101 94 93 83 71 55 42 34 22 18 15 5 358 354
207 172 201 241 239 273 278 226 208 193 166 161 164 161 165 166 163 164 151 135 196 194 184 187 175 163 158 162 171 174 173 178 184 189 194 197 201 206 210 210 207 204 201 198 195 196 197 198 199 199 194 193 195 195 193 193 192 191 190 187 185 183 181 180 178 174 167 155 151 158 161 155 148 141 139 140 137 137 136 136 137 126 132 127 106 97 53 17 350 345 346 343 344 342 337 337 335
228 220 228 249 238 245 273 233 204 186 163 156 154 155 172 171 171 173 161 152 217 207 201 204 196 181 174 171 174 177 179 183 186 191 196 200 203 207 211 213 211 206 202 201 200 198 200 201 202 203 199 195 199 201 198 200 200 198 200 200 199 195 194 196 199 201 195 182 175 179 184 184 178 159 149 155 155 159 162 168 175 175 200 215 270 282 303 304 308 312 314 317 318 319 318 321 321
229 261 238 248 233 225 265 225 179 171 162 157 160 165 166 163 177 183 179 190 207 212 212 205 202 195 187 180 177 181 184 188 191 194 198 202 206 210 213 214 214 210 205 206 205 202 201 201 203 206 205 199 200 202 201 203 202 202 206 208 207 206 205 206 211 217 214 207 202 197 196 205 210 188 168 173 187 191 190 213 225 233 241 255 276 281 290 290 293 296 300 304 307 309 310 314 313
217 263 253 254 242 230 229 211 178 174 171 167 164 161 162 165 177 185 191 204 213 220 213 203 199 191 186 183 183 188 191 194 197 199 202 206 209 213 216 217 218 214 210 208 208 207 206 205 204 207 208 204 203 203 204 205 204 205 208 210 212 211 212 213 217 224 228 226 221 218 214 215 223 216 194 194 216 221 216 236 244 245 250 261 272 280 286 287 289 290 295 299 301 304 306 310 309
210 238 258 255 239 221 211 219 196 186 179 166 158 158 170 174 171 185 195 197 197 200 203 201 193 188 188 188 189 192 195 198 202 203 205 208 211 214 217 218 217 214 212 210 211 212 212 211 210 212 213 210 208 207 207 208 208 211 213 215 218 218 217 217 218 224 234 238 234 233 231 228 229 230 227 220 224 233 235 242 249 250 253 260 266 269 275 276 277 282 288 294 295 297 301 304 304
226 232 241 244 236 204 193 212 190 186 180 163 155 152 172 173 166 188 193 183 176 177 189 195 191 190 191 192 195 194 197 201 204 206 207 209 212 216 217 217 216 215 213 212 214 215 216 216 216 219 219 217 216 214 213 213 214 217 221 222 224 225 220 220 222 223 231 239 242 241 240 241 237 233 237 239 235 238 239 242 248 250 251 255 260 264 267 268 270 275 280 285 288 291 296 297 298
303 262 234 229 224 197 189 199 180 177 176 170 160 130 169 171 168 197 192 185 181 176 179 189 192 194 194 195 197 197 199 202 206 208 209 210 212 215 217 217 217 217 215 213 214 216 219 220 221 223 225 225 224 223 222 221 222 223 226 228 228 228 225 225 226 225 229 237 244 245 245 246 245 241 239 244 247 246 245 246 248 250 253 256 261 265 268 272 273 276 279 282 284 287 291 292 294
317 276 214 216 203 195 211 202 189 173 176 186 160 112 144 151 191 214 193 188 191 187 182 187 193 197 197 197 197 199 202 203 206 208 209 211 212 213 215 217 217 216 216 214 213 215 217 221 224 226 228 230 229 228 226 226 229 228 230 234 233 232 231 232 231 231 231 234 241 245 246 246 247 248 245 247 250 250 253 253 253 254 257 259 264 268 272 276 278 280 282 284 285 286 289 291 293
314 249 186 314 4 264 233 203 199 192 189 185 147 99 311 242 224 214 190 189 190 190 188 189 194 197 199 199 200 201 203 203 206 209 212 213 213 215 216 218 219 218 218 216 215 214 216 219 222 225 227 229 229 229 228 229 231 232 234 237 240 240 239 241 239 241 240 238 241 243 244 243 246 249 249 250 249 251 253 255 258 259 261 263 267 270 273 277 279 281 282 283 286 288 289 291 292
305 244 173 126 27 295 228 191 194 206 186 175 152 180 262 245 231 213 185 190 186 186 192 191 194 199 200 201 203 204 205 206 209 212 213 213 214 217 218 220 221 223 222 218 216 215 216 219 221 223 224 225 227 229 230 230 231 233 235 237 240 244 247 249 248 248 250 248 246 245 243 242 245 250 252 253 252 252 253 255 259 260 261 263 265 269 272 275 276 276 279 283 285 287 289 291 291
287 235 178 149 165 260 244 185 171 175 191 181 155 225 242 246 234 219 192 192 189 188 193 195 197 199 202 204 206 208 210 211 216 218 216 215 214 216 219 220 222 224 225 222 219 216 217 220 221 223 224 225 226 228 231 231 232 232 233 235 237 241 245 250 250 250 253 254 253 250 247 245 245 248 251 254 256 258 259 261 262 262 263 262 262 263 265 269 272 276 279 282 285 287 289 291 291
355 175 239 210 171 256 291 199 178 167 191 188 147 208 251 266 239 219 198 193 192 193 194 197 200 201 203 206 209 212 214 216 220 221 219 218 216 216 217 218 221 224 225 225 224 221 221 224 225 226 225 226 227 229 231 232 233 233 233 234 234 236 240 244 247 249 253 256 258 256 254 253 251 250 251 252 254 257 261 263 264 266 266 267 266 264 263 265 269 273 275 278 283 287 290 291 291
348 133 207 222 176 231 306 230 205 185 161 189 174 193 241 279 261 210 196 194 193 195 197 199 203 205 206 209 213 216 218 218 220 221 220 219 218 218 216 216 219 223 225 225 225 224 225 227 228 229 229 229 230 231 231 231 232 233 234 234 234 235 237 241 244 247 251 255 259 261 260 259 257 257 257 256 255 255 257 261 262 263 266 268 270 269 269 271 274 277 280 281 282 284 289 290 289
315 18 185 220 189 185 217 271 234 197 177 204 193 208 236 269 298 201 193 194 194 197 201 203 205 209 211 214 218 221 222 222 223 222 220 219 219 219 218 217 218 222 225 225 225 227 229 230 232 233 233 233 234 233 232 232 232 233 235 236 237 238 238 240 242 244 249 254 259 262 263 262 259 259 260 261 261 259 257 260 261 261 263 268 272 274 275 280 286 289 292 292 290 289 290 292 292
230 204 185 228 219 203 205 241 227 184 199 220 185 231 256 265 296 225 195 194 198 205 207 209 210 212 215 218 221 225 227 228 230 229 224 221 219 219 219 218 217 220 223 224 225 227 229 232 233 235 236 235 236 236 234 233 233 234 235 236 237 238 239 239 241 244 247 251 256 259 262 263 264 265 264 263 263 263 263 264 265 262 262 266 270 271 272 279 284 283 284 288 293 294 293 297 298
188 191 170 172 195 239 223 235 253 176 184 225 194 214 244 250 271 245 208 202 207 214 216 216 216 216 218 219 223 227 229 235 239 235 231 226 222 219 219 219 219 219 221 223 224 226 228 230 231 232 234 235 236 235 233 231 231 232 233 233 234 236 237 239 241 245 248 250 254 257 260 264 268 270 271 270 270 270 271 273 273 266 262 267 269 268 270 273 275 276 280 284 292 295 296 298 294
187 171 172 191 194 233 248 257 295 194 178 227 211 220 250 254 265 252 221 218 224 225 226 224 221 220 221 222 224 227 231 238 242 239 236 233 228 222 219 219 219 219 219 221 222 224 227 228 229 230 231 233 233 232 230 229 228 229 231 233 235 238 240 242 243 244 248 252 256 258 261 265 267 267 267 268 270 271 270 273 274 269 270 279 281 279 277 274 274 283 288 289 295 295 293 291 288
221 225 240 251 211 232 264 254 302 334 185 239 229 235 263 256 254 258 228 218 231 228 225 226 227 226 227 227 228 229 233 238 239 239 238 236 233 227 222 220 219 219 219 220 221 223 225 227 229 229 230 230 231 231 231 230 230 231 234 239 243 246 246 246 246 247 250 253 255 256 258 260 262 262 262 262 264 265 265 269 279 288 291 289 285 276 270 278 289 297 296 291 293 294 292 291 293
224 213 187 258 235 243 283 276 312 3 188 255 247 215 254 255 251 260 242 228 233 232 227 228 229 229 229 229 230 231 233 236 237 238 237 236 235 230 226 223 221 222 221 222 222 222 224 226 228 228 229 229 230 230 231 232 233 235 238 241 244 246 246 247 248 247 246 246 247 248 250 254 257 259 260 260 260 261 264 271 281 284 282 288 296 290 281 282 286 289 293 291 291 294 293 294 298
218 180 156 239 239 196 246 258 296 30 125 214 144 200 266 273 278 272 249 240 241 241 237 237 236 234 234 233 234 235 233 235 237 236 235 233 233 230 227 225 223 223 223 223 222 222 223 225 227 228 228 229 230 229 230 231 233 235 237 238 240 242 243 242 242 241 241 243 245 246 250 254 257 259 258 259 262 266 272 279 282 276 278 292 301 298 294 290 290 293 299 298 295 292 291 295 300
236 193 172 210 214 195 208 195 132 13 358 97 102 356 303 272 264 264 251 242 242 243 240 241 241 240 240 238 237 236 236 238 240 239 235 233 231 229 226 225 225 224 224 223 223 223 225 226 228 229 229 230 230 229 229 229 230 230 231 231 231 233 234 235 238 243 244 248 253 254 256 257 258 259 257 259 265 273 280 284 286 286 290 294 288 288 289 290 304 314 304 294 289 288 292 297 300
254 218 196 207 203 192 170 130 97 48 318 289 90 293 291 293 264 248 256 261 247 242 236 237 242 242 240 238 237 236 236 239 242 243 239 237 236 232 228 226 225 225 225 225 225 225 227 228 229 230 231 230 230 230 228 228 229 228 229 230 230 233 237 241 246 252 254 258 262 257 253 254 258 260 259 261 267 274 280 282 283 283 284 286 285 290 291 286 294 301 296 292 290 293 295 294 296
251 229 197 195 180 158 147 143 121 121 230 287 65 181 256 316 294 251 260 281 257 249 244 242 243 243 239 237 237 236 236 238 240 242 240 238 238 236 232 229 227 227 227 227 228 228 228 229 229 230 231 231 230 229 228 229 230 230 232 235 237 241 245 250 254 257 257 255 252 248 249 252 256 259 258 261 267 270 270 269 270 272 274 279 282 287 288 281 278 281 284 284 287 291 288 287 291
239 228 161 148 150 159 164 158 153 181 205 328 22 135 228 288 270 264 276 275 273 269 258 250 244 242 240 238 237 237 237 239 240 241 240 237 237 238 236 234 233 231 229 229 229 229 229 229 230 230 231 232 231 230 230 230 231 233 235 238 240 243 246 250 253 255 253 248 245 246 247 248 251 253 253 254 257 259 261 260 259 261 265 270 273 274 272 268 269 275 278 278 282 283 283 287 291
234 201 144 142 150 158 158 145 140 82 126 287 308 133 193 268 273 298 330 261 276 267 248 246 243 241 241 240 239 239 239 240 241 241 241 239 238 238 238 236 235 233 231 230 231 232 232 231 231 231 231 232 232 232 232 233 234 236 238 240 241 243 244 245 246 247 246 245 246 246 244 244 247 248 248 251 254 259 265 265 261 261 261 259 257 258 259 262 270 277 276 274 276 276 277 281 288
185 137 107 86 77 89 102 117 113 63 101 235 252 193 192 268 282 305 326 255 256 257 251 247 244 242 241 241 241 241 241 241 241 241 240 240 239 237 236 234 233 233 232 233 234 235 235 235 234 233 232 232 232 233 233 234 236 238 239 240 240 242 243 242 241 240 241 244 245 246 246 248 250 251 252 255 259 261 263 265 264 264 264 258 252 255 260 265 267 267 268 271 272 273 274 274 282
131 110 84 68 42 42 51 60 95 93 268 248 245 225 181 263 281 250 226 229 220 234 267 267 257 250 243 242 242 241 241 239 237 237 237 236 236 234 232 232 230 230 231 233 235 236 236 237 236 236 234 234 234 234 234 235 237 239 240 241 240 241 241 241 241 239 240 243 245 249 252 255 258 257 254 252 252 252 255 261 264 267 269 267 264 266 270 271 270 272 277 280 276 274 278 280 281
122 106 108 92 8 12 26 357 49 148 249 259 250 226 170 217 264 245 239 257 233 220 247 261 270 273 258 245 242 238 234 231 229 230 231 232 232 231 229 228 227 227 228 231 233 234 236 235 235 236 235 234 234 234 235 235 236 237 239 240 240 240 240 240 240 241 242 244 248 253 255 257 255 250 244 241 240 242 249 258 263 266 271 274 276 276 276 278 281 284 288 289 288 287 292 296 293
110 119 128 119 4 26 22 281 294 215 242 264 248 208 196 227 251 259 263 267 254 228 233 250 272 288 282 253 238 231 224 223 223 225 228 229 229 229 228 228 228 229 229 231 233 234 236 235 234 234 234 234 234 233 234 234 235 236 237 237 237 237 237 238 239 241 243 246 249 253 251 247 241 235 233 232 230 231 237 247 257 266 272 274 277 277 279 287 291 296 303 307 314 318 318 318 316
141 146 145 141 125 122 213 245 285 253 251 273 256 236 255 266 262 251 249 257 269 264 254 262 276 290 293 260 232 220 216 219 223 227 232 234 235 235 235 235 235 236 236 236 237 237 237 236 236 235 234 233 233 233 233 232 232 233 234 235 235 234 234 234 237 238 241 244 246 246 241 231 224 221 218 213 210 209 213 223 230 237 244 245 250 256 270 293 307 319 333 342 347 351 351 349 350
183 163 140 150 155 159 201 216 212 228 257 283 277 238 192 201 245 238 242 265 288 289 263 259 263 270 271 242 222 214 215 219 224 232 236 239 241 241 241 241 240 240 239 238 238 237 237 236 236 236 235 233 232 232 231 230 230 231 231 231 230 230 230 231 233 235 238 241 239 236 226 214 205 201 198 196 197 198 200 204 206 206 206 201 196 178 139 35 25 18 11 8 5 4 3 0 358
211 141 122 174 182 150 151 187 184 175 165 261 233 234 209 209 269 269 264 274 280 282 268 255 251 252 237 221 219 217 219 225 230 237 240 240 241 241 242 243 242 242 240 238 236 235 236 235 234 234 234 234 232 230 229 228 227 227 226 226 225 225 227 228 231 234 236 234 227 217 205 195 191 189 190 192 191 192 193 191 189 185 177 163 144 122 95 60 46 33 24 17 13 9 3 359 358
159 129 178 215 166 118 122 199 137 101 181 250 194 249 285 316 290 292 319 293 275 278 275 255 242 235 221 216 218 220 225 232 238 243 245 246 246 245 245 243 241 240 238 236 234 233 234 233 231 230 229 229 228 227 226 224 223 222 222 222 222 223 225 228 230 231 227 216 203 193 189 187 187 186 186 188 186 184 183 178 172 165 154 140 117 90 51 36 31 26 21 13 5 1 358 356 355
127 165 198 189 110 92 116 170 10 54 229 271 245 220 273 321 263 310 337 293 274 273 255 249 241 225 219 219 220 224 230 235 241 246 247 250 250 249 248 243 239 236 233 231 229 227 227 226 226 225 224 223 222 222 221 221 220 219 220 220 221 222 224 224 222 213 201 191 185 183 184 184 184 182 181 182 181 177 174 169 163 157 150 138 93 44 29 22 15 7 0 355 353 352 351 349 348
136 172 165 134 153 209 151 159 176 168 224 277 307 250 247 203 214 288 293 245 251 257 241 237 237 225 221 222 223 227 232 235 239 243 246 250 251 251 251 248 244 239 232 228 225 223 221 219 219 220 221 221 219 219 219 219 219 219 219 220 219 218 214 205 196 187 181 179 180 182 181 179 178 178 178 177 177 175 171 168 166 166 161 141 90 36 19 5 358 353 349 349 349 346 343 342 341
43 87 131 122 150 179 180 163 161 175 205 243 301 308 257 228 216 221 234 234 236 238 232 228 231 227 224 225 226 229 234 238 241 241 244 247 249 252 253 252 251 245 236 228 223 221 218 214 213 212 214 217 216 217 217 217 217 217 216 213 209 202 190 183 179 177 177 177 177 176 175 176 177 177 177 176 176 174 174 174 173 173 170 152 64 3 355 350 347 345 345 344 341 339 337 336 336
117 128 175 199 75 133 164 165 130 133 162 194 234 282 263 249 212 197 224 240 232 218 220 236 240 235 231 231 230 232 235 240 243 242 243 246 247 250 252 251 249 244 238 231 224 220 216 213 209 206 207 208 208 209 210 210 208 206 202 197 190 182 176 175 175 175 176 174 173 174 175 177 178 177 176 177 177 177 178 179 176 174 174 182 304 334 337 339 339 336 336 334 332 331 331 332 334
175 182 184 182 167 123 147 231 213 135 171 178 171 240 265 254 207 201 224 241 244 228 221 240 250 248 244 240 234 233 235 238 241 243 244 246 247 249 249 249 248 243 239 233 222 216 212 208 203 200 200 199 199 199 197 196 193 189 186 182 177 174 172 174 175 174 173 173 174 175 176 179 180 178 176 177 180 182 180 179 179 184 193 215 274 317 323 325 327 325 326 326 325 327 328 329 331